TAM4633 SBUL-SBSP

Flight info

Callsign TAM4633
Flight time 1h 2m
Altitude 35000
Route KOMLU DCT DEVIR UZ2 ENTIT
Aircraft A319/M-SDE2FGHIM1RWXYZ/S

Departure

Time 2026-05-08 00:52
Airport Ten. Cel. Aviador César Bombonato Airport (SBUL)

Arrival

Time 2026-05-08 01:54
Airport Congonhas–Deputado Freitas Nobre Airport (SBSP)
Time Latitude Longitude Altitude Speed Heading
2026-05-08 00:27 -18.89000 -48.23046 3108 ft 0 kts 291°
2026-05-08 00:43 -18.89005 -48.23034 3108 ft 4 kts 297°
2026-05-08 00:44 -18.89021 -48.23012 3107 ft 4 kts 339°
2026-05-08 00:44 -18.89036 -48.23010 3107 ft 0 kts 21°
2026-05-08 00:48 -18.89033 -48.23009 3107 ft 2 kts 23°
2026-05-08 00:49 -18.89029 -48.22991 3107 ft 4 kts 94°
2026-05-08 00:49 -18.89043 -48.22953 3107 ft 8 kts 113°
2026-05-08 00:49 -18.89070 -48.22908 3107 ft 7 kts 154°
2026-05-08 00:49 -18.89098 -48.22916 3106 ft 4 kts 202°
2026-05-08 00:50 -18.89128 -48.22929 3106 ft 6 kts 202°
2026-05-08 00:50 -18.89173 -48.22926 3106 ft 7 kts 168°
2026-05-08 00:50 -18.89221 -48.22935 3106 ft 8 kts 246°
2026-05-08 00:50 -18.89207 -48.22964 3105 ft 2 kts
2026-05-08 00:51 -18.89198 -48.22960 3105 ft 0 kts 24°
2026-05-08 00:51 -18.89188 -48.22955 3106 ft 12 kts 24°
2026-05-08 00:52 -18.88881 -48.22819 3107 ft 82 kts 22°
2026-05-08 00:52 -18.88165 -48.22505 3108 ft 140 kts 22°
2026-05-08 00:52 -18.87165 -48.22064 3468 ft 157 kts 24°
2026-05-08 00:52 -18.86159 -48.21621 4019 ft 164 kts 25°
2026-05-08 00:53 -18.85045 -48.21118 4297 ft 183 kts 25°
2026-05-08 00:53 -18.83808 -48.20565 4587 ft 206 kts 25°
2026-05-08 00:53 -18.82452 -48.19849 4946 ft 229 kts 39°
2026-05-08 00:53 -18.81591 -48.18380 5375 ft 252 kts 78°
2026-05-08 00:54 -18.81782 -48.16483 6001 ft 274 kts 112°
2026-05-08 00:54 -18.83011 -48.14928 6838 ft 290 kts 140°
2026-05-08 00:54 -18.84592 -48.13558 7774 ft 292 kts 128°
2026-05-08 00:54 -18.85526 -48.11681 8657 ft 290 kts 106°
2026-05-08 00:55 -18.86169 -48.09683 9564 ft 293 kts 105°
2026-05-08 00:55 -18.86806 -48.07619 10373 ft 300 kts 104°
2026-05-08 00:55 -18.87467 -48.05436 10685 ft 323 kts 105°
2026-05-08 00:55 -18.88204 -48.03144 11285 ft 334 kts 110°
2026-05-08 00:56 -18.89376 -48.00989 11981 ft 344 kts 125°
2026-05-08 00:56 -18.91067 -47.99173 12710 ft 351 kts 140°
2026-05-08 00:56 -18.93163 -47.97809 13455 ft 357 kts 151°
2026-05-08 00:56 -18.95358 -47.96566 14269 ft 359 kts 150°
2026-05-08 00:57 -18.97555 -47.95307 15020 ft 361 kts 150°
2026-05-08 00:57 -18.99766 -47.94034 15761 ft 363 kts 150°
2026-05-08 00:57 -19.01989 -47.92756 16477 ft 365 kts 150°
2026-05-08 00:57 -19.04227 -47.91475 17156 ft 367 kts 150°
2026-05-08 00:58 -19.06481 -47.90187 17821 ft 369 kts 150°
2026-05-08 00:58 -19.08750 -47.88890 18484 ft 372 kts 150°
2026-05-08 00:58 -19.11032 -47.87584 19112 ft 374 kts 150°
2026-05-08 00:58 -19.13332 -47.86269 19733 ft 377 kts 151°
2026-05-08 00:59 -19.15617 -47.84965 20331 ft 379 kts 151°
2026-05-08 00:59 -19.17949 -47.83634 20907 ft 382 kts 151°
2026-05-08 00:59 -19.20294 -47.82292 21458 ft 385 kts 151°
2026-05-08 00:59 -19.22656 -47.80940 22016 ft 387 kts 152°
2026-05-08 01:00 -19.25030 -47.79580 22566 ft 389 kts 152°
2026-05-08 01:00 -19.27418 -47.78209 23091 ft 392 kts 152°
2026-05-08 01:00 -19.29824 -47.76828 23600 ft 394 kts 152°
2026-05-08 01:00 -19.32241 -47.75440 24108 ft 397 kts 153°
2026-05-08 01:01 -19.34681 -47.74041 24613 ft 399 kts 153°
2026-05-08 01:01 -19.37133 -47.72633 25093 ft 402 kts 153°
2026-05-08 01:01 -19.39606 -47.71213 25553 ft 405 kts 153°
2026-05-08 01:01 -19.42063 -47.69803 25995 ft 408 kts 153°
2026-05-08 01:02 -19.44567 -47.68367 26435 ft 410 kts 153°
2026-05-08 01:02 -19.47084 -47.66922 26863 ft 413 kts 153°
2026-05-08 01:02 -19.49622 -47.65465 27285 ft 416 kts 153°
2026-05-08 01:02 -19.52177 -47.63996 27704 ft 418 kts 153°
2026-05-08 01:03 -19.54751 -47.62515 28120 ft 421 kts 153°
2026-05-08 01:03 -19.57337 -47.61024 28524 ft 424 kts 153°
2026-05-08 01:03 -19.59907 -47.59541 28919 ft 426 kts 153°
2026-05-08 01:03 -19.62532 -47.58024 29327 ft 429 kts 154°
2026-05-08 01:04 -19.65166 -47.56507 29733 ft 432 kts 154°
2026-05-08 01:04 -19.67789 -47.55000 30137 ft 434 kts 154°
2026-05-08 01:04 -19.70460 -47.53466 30539 ft 437 kts 154°
2026-05-08 01:04 -19.73144 -47.51922 30929 ft 439 kts 154°
2026-05-08 01:05 -19.74927 -47.50893 31203 ft 440 kts 154°
2026-05-08 01:05 -19.78517 -47.48824 31794 ft 440 kts 154°
2026-05-08 01:05 -19.80306 -47.47800 32161 ft 439 kts 154°
2026-05-08 01:05 -19.83873 -47.45768 32905 ft 436 kts 155°
2026-05-08 01:06 -19.85646 -47.44761 33273 ft 434 kts 155°
2026-05-08 01:06 -19.88308 -47.43252 33826 ft 431 kts 155°
2026-05-08 01:06 -19.90959 -47.41748 34371 ft 429 kts 155°
2026-05-08 01:06 -19.93589 -47.40249 34883 ft 427 kts 156°
2026-05-08 01:07 -19.96205 -47.38754 35066 ft 426 kts 156°
2026-05-08 01:07 -20.01298 -47.35833 35118 ft 405 kts 156°
2026-05-08 01:08 -20.06194 -47.33034 35110 ft 400 kts 156°
2026-05-08 01:08 -20.11096 -47.30243 35109 ft 399 kts 156°
2026-05-08 01:09 -20.15980 -47.27444 35108 ft 398 kts 156°
2026-05-08 01:09 -20.20855 -47.24651 35110 ft 398 kts 156°
2026-05-08 01:10 -20.25812 -47.21819 35110 ft 408 kts 156°
2026-05-08 01:10 -20.30805 -47.18955 35100 ft 410 kts 156°
2026-05-08 01:11 -20.35846 -47.16057 35099 ft 410 kts 156°
2026-05-08 01:11 -20.40846 -47.13183 35100 ft 410 kts 156°
2026-05-08 01:12 -20.45893 -47.10278 35099 ft 410 kts 156°
2026-05-08 01:12 -20.50893 -47.07400 35095 ft 409 kts 156°
2026-05-08 01:13 -20.55888 -47.04523 35088 ft 409 kts 156°
2026-05-08 01:13 -20.60906 -47.01635 35092 ft 408 kts 156°
2026-05-08 01:14 -20.65883 -46.98767 35086 ft 408 kts 156°
2026-05-08 01:14 -20.70888 -46.95875 35084 ft 408 kts 156°
2026-05-08 01:15 -20.75857 -46.93005 35075 ft 407 kts 157°
2026-05-08 01:15 -20.81141 -46.91113 35073 ft 397 kts 175°
2026-05-08 01:16 -20.86570 -46.90278 35075 ft 396 kts 175°
2026-05-08 01:16 -20.92036 -46.89423 35069 ft 396 kts 175°
2026-05-08 01:17 -20.97490 -46.88570 35064 ft 395 kts 175°
2026-05-08 01:17 -21.02901 -46.87725 35057 ft 395 kts 175°
2026-05-08 01:18 -21.08342 -46.86874 35058 ft 396 kts 175°
2026-05-08 01:18 -21.13800 -46.86020 35058 ft 396 kts 175°
2026-05-08 01:19 -21.19260 -46.85162 35052 ft 396 kts 175°
2026-05-08 01:19 -21.24692 -46.84308 35050 ft 397 kts 175°
2026-05-08 01:20 -21.30159 -46.83454 35053 ft 396 kts 175°
2026-05-08 01:20 -21.35627 -46.82597 35053 ft 396 kts 175°
2026-05-08 01:21 -21.41049 -46.81742 35055 ft 396 kts 175°
2026-05-08 01:21 -21.46513 -46.80875 35058 ft 396 kts 175°
2026-05-08 01:22 -21.51977 -46.80015 35060 ft 396 kts 175°
2026-05-08 01:22 -21.57406 -46.79167 35061 ft 396 kts 175°
2026-05-08 01:23 -21.62868 -46.78310 35065 ft 396 kts 175°
2026-05-08 01:23 -21.68322 -46.77446 35066 ft 396 kts 175°
2026-05-08 01:24 -21.73774 -46.76580 35065 ft 395 kts 175°
2026-05-08 01:24 -21.79216 -46.75720 35070 ft 396 kts 175°
2026-05-08 01:25 -21.84630 -46.74871 35045 ft 397 kts 175°
2026-05-08 01:25 -21.87376 -46.74440 34414 ft 401 kts 175°
2026-05-08 01:25 -21.90140 -46.74002 33970 ft 399 kts 175°
2026-05-08 01:25 -21.92882 -46.73565 33526 ft 397 kts 175°
2026-05-08 01:26 -21.95607 -46.73129 33079 ft 394 kts 175°
2026-05-08 01:26 -21.98315 -46.72698 32639 ft 392 kts 175°
2026-05-08 01:26 -22.01006 -46.72273 32201 ft 389 kts 175°
2026-05-08 01:26 -22.03683 -46.71852 31772 ft 387 kts 175°
2026-05-08 01:27 -22.06306 -46.71435 31354 ft 385 kts 175°
2026-05-08 01:27 -22.08950 -46.71013 30927 ft 383 kts 175°
2026-05-08 01:27 -22.11584 -46.70592 30524 ft 381 kts 175°
2026-05-08 01:27 -22.14202 -46.70178 30123 ft 379 kts 175°
2026-05-08 01:28 -22.16791 -46.69768 29729 ft 378 kts 175°
2026-05-08 01:28 -22.19412 -46.69354 29341 ft 376 kts 175°
2026-05-08 01:28 -22.21992 -46.68945 28951 ft 375 kts 174°
2026-05-08 01:28 -22.24572 -46.68537 28581 ft 372 kts 174°
2026-05-08 01:29 -22.27101 -46.68135 28216 ft 370 kts 174°
2026-05-08 01:29 -22.29641 -46.67730 27842 ft 368 kts 174°
2026-05-08 01:29 -22.32167 -46.67324 27455 ft 365 kts 174°
2026-05-08 01:29 -22.34679 -46.66920 27079 ft 363 kts 174°
2026-05-08 01:30 -22.37142 -46.66608 26715 ft 357 kts 181°
2026-05-08 01:30 -22.39597 -46.66776 26358 ft 350 kts 192°
2026-05-08 01:30 -22.41939 -46.67446 26001 ft 344 kts 203°
2026-05-08 01:30 -22.44088 -46.68561 25614 ft 340 kts 213°
2026-05-08 01:31 -22.45964 -46.70044 25244 ft 336 kts 223°
2026-05-08 01:31 -22.47668 -46.71756 24861 ft 333 kts 225°
2026-05-08 01:31 -22.49362 -46.73462 24449 ft 332 kts 225°
2026-05-08 01:31 -22.51049 -46.75158 24059 ft 330 kts 224°
2026-05-08 01:32 -22.52737 -46.76857 23672 ft 338 kts 225°
2026-05-08 01:32 -22.54496 -46.78630 23248 ft 350 kts 224°
2026-05-08 01:32 -22.56292 -46.80442 22914 ft 352 kts 224°
2026-05-08 01:32 -22.58084 -46.82257 22789 ft 354 kts 225°
2026-05-08 01:33 -22.59884 -46.84082 22613 ft 355 kts 225°
2026-05-08 01:33 -22.61687 -46.85908 22434 ft 354 kts 225°
2026-05-08 01:33 -22.63465 -46.87708 22256 ft 354 kts 225°
2026-05-08 01:33 -22.65268 -46.89529 22068 ft 353 kts 224°
2026-05-08 01:34 -22.67069 -46.91340 21888 ft 353 kts 223°
2026-05-08 01:34 -22.69065 -46.92896 21711 ft 354 kts 213°
2026-05-08 01:34 -22.71153 -46.94315 21530 ft 354 kts 213°
2026-05-08 01:34 -22.73215 -46.95716 21358 ft 353 kts 213°
2026-05-08 01:35 -22.75297 -46.97136 21174 ft 353 kts 214°
2026-05-08 01:35 -22.77381 -46.98557 20997 ft 353 kts 214°
2026-05-08 01:35 -22.79460 -46.99971 20785 ft 351 kts 213°
2026-05-08 01:35 -22.81536 -47.01383 20634 ft 353 kts 213°
2026-05-08 01:36 -22.83621 -47.02803 20458 ft 352 kts 214°
2026-05-08 01:36 -22.85671 -47.04204 20284 ft 352 kts 214°
2026-05-08 01:36 -22.87749 -47.05625 20115 ft 352 kts 214°
2026-05-08 01:36 -22.89808 -47.07029 20036 ft 351 kts 213°
2026-05-08 01:37 -22.91886 -47.08439 20054 ft 352 kts 213°
2026-05-08 01:37 -22.93976 -47.09853 20054 ft 352 kts 213°
2026-05-08 01:37 -22.96040 -47.11250 20054 ft 352 kts 213°
2026-05-08 01:37 -22.98134 -47.12666 20055 ft 352 kts 213°
2026-05-08 01:38 -23.00258 -47.13998 19954 ft 354 kts 206°
2026-05-08 01:38 -23.02597 -47.14824 19116 ft 365 kts 190°
2026-05-08 01:38 -23.05149 -47.14933 18276 ft 369 kts 174°
2026-05-08 01:38 -23.07672 -47.14428 17524 ft 369 kts 167°
2026-05-08 01:39 -23.10178 -47.13857 16817 ft 367 kts 168°
2026-05-08 01:39 -23.12674 -47.13307 16145 ft 364 kts 168°
2026-05-08 01:39 -23.15150 -47.12768 15517 ft 361 kts 168°
2026-05-08 01:39 -23.17574 -47.12242 15206 ft 348 kts 168°
2026-05-08 01:40 -23.19911 -47.11734 14935 ft 339 kts 168°
2026-05-08 01:40 -23.22190 -47.11235 14656 ft 336 kts 168°
2026-05-08 01:40 -23.24476 -47.10729 14372 ft 334 kts 168°
2026-05-08 01:40 -23.26760 -47.10223 14082 ft 334 kts 168°
2026-05-08 01:41 -23.29033 -47.09723 13811 ft 332 kts 168°
2026-05-08 01:41 -23.31286 -47.09169 13541 ft 331 kts 161°
2026-05-08 01:41 -23.33273 -47.08009 13292 ft 327 kts 140°
2026-05-08 01:41 -23.34918 -47.06310 13041 ft 326 kts 133°
2026-05-08 01:42 -23.36523 -47.04570 12789 ft 325 kts 133°
2026-05-08 01:42 -23.38122 -47.02835 12543 ft 324 kts 133°
2026-05-08 01:42 -23.39717 -47.01102 12285 ft 323 kts 133°
2026-05-08 01:42 -23.41304 -46.99373 12034 ft 322 kts 133°
2026-05-08 01:43 -23.42893 -46.97643 11785 ft 322 kts 133°
2026-05-08 01:43 -23.44473 -46.95927 11531 ft 320 kts 133°
2026-05-08 01:43 -23.46029 -46.94238 11283 ft 319 kts 133°
2026-05-08 01:43 -23.47596 -46.92535 11034 ft 318 kts 133°
2026-05-08 01:44 -23.49157 -46.90835 10782 ft 316 kts 133°
2026-05-08 01:44 -23.50701 -46.89153 10525 ft 311 kts 133°
2026-05-08 01:44 -23.52225 -46.87492 10165 ft 309 kts 133°
2026-05-08 01:44 -23.53742 -46.85836 9785 ft 308 kts 133°
2026-05-08 01:45 -23.55260 -46.84181 9405 ft 307 kts 133°
2026-05-08 01:45 -23.56839 -46.82619 9094 ft 306 kts 143°
2026-05-08 01:45 -23.58631 -46.81369 9094 ft 307 kts 147°
2026-05-08 01:45 -23.60436 -46.80125 9100 ft 307 kts 147°
2026-05-08 01:46 -23.62240 -46.78869 9096 ft 307 kts 147°
2026-05-08 01:46 -23.64044 -46.77610 9108 ft 307 kts 147°
2026-05-08 01:46 -23.65845 -46.76352 8934 ft 307 kts 147°
2026-05-08 01:46 -23.67615 -46.75118 8694 ft 305 kts 147°
2026-05-08 01:47 -23.69402 -46.73876 8450 ft 304 kts 147°
2026-05-08 01:47 -23.71183 -46.72638 8145 ft 302 kts 147°
2026-05-08 01:47 -23.72958 -46.71403 7909 ft 301 kts 147°
2026-05-08 01:48 -23.76470 -46.68959 7454 ft 298 kts 147°
2026-05-08 01:48 -23.78222 -46.67745 7232 ft 298 kts 147°
2026-05-08 01:48 -23.79967 -46.66535 7008 ft 296 kts 147°
2026-05-08 01:48 -23.81695 -46.65312 6783 ft 296 kts 143°
2026-05-08 01:49 -23.82998 -46.63674 6565 ft 286 kts 115°
2026-05-08 01:49 -23.83519 -46.61638 6353 ft 274 kts 90°
2026-05-08 01:49 -23.83233 -46.59625 6105 ft 265 kts 65°
2026-05-08 01:49 -23.82284 -46.57956 5880 ft 256 kts 47°
2026-05-08 01:50 -23.81164 -46.56470 5660 ft 250 kts 43°
2026-05-08 01:50 -23.79979 -46.55573 5481 ft 241 kts 19°
2026-05-08 01:50 -23.78396 -46.55292 5283 ft 229 kts 352°
2026-05-08 01:50 -23.76918 -46.55786 5116 ft 218 kts 327°
2026-05-08 01:51 -23.75649 -46.56660 4951 ft 214 kts 324°
2026-05-08 01:51 -23.74413 -46.57516 4796 ft 206 kts 325°
2026-05-08 01:51 -23.73231 -46.58333 4652 ft 200 kts 325°
2026-05-08 01:51 -23.72094 -46.59117 4505 ft 189 kts 326°
2026-05-08 01:52 -23.71015 -46.59865 4353 ft 177 kts 327°
2026-05-08 01:52 -23.70020 -46.60555 4201 ft 163 kts 327°
2026-05-08 01:52 -23.69112 -46.61185 3977 ft 148 kts 328°
2026-05-08 01:52 -23.68275 -46.61764 3788 ft 136 kts 329°
2026-05-08 01:53 -23.67488 -46.62310 3605 ft 132 kts 329°
2026-05-08 01:53 -23.66741 -46.62829 3428 ft 130 kts 328°
2026-05-08 01:53 -23.65971 -46.63363 3256 ft 129 kts 329°
2026-05-08 01:53 -23.65211 -46.63881 3063 ft 129 kts 328°
2026-05-08 01:54 -23.64455 -46.64408 2865 ft 129 kts 327°
2026-05-08 01:54 -23.63696 -46.64933 2706 ft 129 kts 326°
2026-05-08 01:54 -23.62962 -46.65443 2611 ft 113 kts 327°
2026-05-08 01:54 -23.62546 -46.65732 2605 ft 40 kts 328°
2026-05-08 01:55 -23.62334 -46.65878 2601 ft 36 kts 327°
2026-05-08 01:55 -23.62215 -46.65961 2599 ft 15 kts 327°
2026-05-08 01:55 -23.62197 -46.66027 2599 ft 11 kts 224°
2026-05-08 01:55 -23.62266 -46.66031 2600 ft 7 kts 150°
2026-05-08 01:56 -23.62314 -46.65999 2600 ft 9 kts 147°
2026-05-08 01:56 -23.62372 -46.65959 2601 ft 11 kts 147°
2026-05-08 01:56 -23.62440 -46.65911 2601 ft 13 kts 147°
2026-05-08 01:56 -23.62518 -46.65857 2602 ft 14 kts 147°
2026-05-08 01:57 -23.62607 -46.65796 2602 ft 16 kts 147°
2026-05-08 01:57 -23.62708 -46.65726 2602 ft 18 kts 148°
2026-05-08 01:57 -23.62807 -46.65657 2603 ft 10 kts 148°
2026-05-08 01:57 -23.62868 -46.65620 2603 ft 8 kts 169°
2026-05-08 01:58 -23.62907 -46.65662 2601 ft 6 kts 237°
2026-05-08 01:58 -23.62934 -46.65706 2601 ft 8 kts 237°
2026-05-08 01:58 -23.62952 -46.65736 2601 ft 2 kts 237°
2026-05-08 01:58 -23.62953 -46.65752 2601 ft 2 kts 287°
2026-05-08 01:59 -23.62937 -46.65764 2601 ft 3 kts 326°
2026-05-08 01:59 -23.62921 -46.65776 2601 ft 0 kts 327°
2026-05-08 01:59 -23.62919 -46.65777 2601 ft 0 kts 327°